Вернуться в каталог

METEOR 2-8 DEB

АктивенPO
NORAD 36322·DEBRIS·🇷🇺 Russia

Запущен Mar 25, 1982 с Plesetsk Cosmodrome

Loading…

Ближайшие Пролёты (ближайшие 24 часа)

TLE

УстаревающийSource: Space-Track

Эпоха: Sep 6, 2026, 19:56 UTC

1 36322U 82025G   26249.83123139  .00003213  00000-0  10278-2 0  9995
2 36322  82.5138  91.8149 0020315  50.1005 310.1968 14.39283117672214

Отслеживайте METEOR 2-8 DEB в реальном времени с AllMySat

Download on the App Store